Vorticity
15 27 61 29 2 -1 22 12 3 92 15 12 9 -15 -20 2 17 10 -1 27 -13 -21 7 2 11 8 5 3 4 12 6 5 5 5 5 6 8 8 10 10 12 13 8 7 6 5 8 8 7 7 7 6 8 9
7 39 57 4 19 12 14 19 19 76 -1 18 9 -2 9 11 44 -31 -1 13 25 -6 3 -1 19 17 1 13 13 2 6 5 8 6 7 -0 9 5 7 13 11 15 13 6 5 5 7 8 7 5 6 6 6 8
33 23 11 17 19 6 18 0 67 62 4 22 -15 -11 26 8 -2 -2 -14 21 -1 13 -17 29 4 4 5 4 4 3 6 5 2 8 4 5 4 11 12 10 21 11 12 8 4 4 8 7 5 5 6 5 6 7
40 19 4 4 1 9 14 -8 105 20 7 -11 -36 32 9 3 20 7 -1 19 -8 1 2 17 -1 6 4 8 5 6 6 4 7 5 1 8 4 3 5 10 24 14 11 8 5 6 5 6 5 6 5 7 6 7
6 8 8 5 13 4 10 111 34 9 8 -0 7 -22 -10 4 18 19 9 15 -13 34 8 3 6 5 7 4 4 17 5 12 9 6 7 6 3 8 11 22 17 11 11 6 4 8 4 6 5 8 6 7 7 7
41 -2 24 27 20 36 63 74 2 41 21 -7 19 -7 11 -1 -20 15 11 12 16 5 9 5 5 4 8 11 10 5 5 5 6 5 6 4 8 6 2 48 15 9 10 6 7 6 4 6 6 7 4 6 8 7
23 16 51 67 60 54 99 4 11 -2 11 -34 25 -9 35 -32 12 13 -5 27 19 2 0 10 3 8 11 -2 0 3 7 7 5 6 5 5 6 6 4 44 12 7 8 9 7 5 5 5 6 5 5 6 7 7
44 10 7 7 -3 72 7 -5 4 36 6 27 2 3 15 -0 5 -5 -4 26 -10 -4 2 12 7 11 -2 -4 -0 1 6 6 5 6 4 7 11 9 7 26 9 9 10 10 8 4 4 7 4 6 5 5 6 9
30 -7 12 4 85 55 -1 -67 10 13 14 23 12 2 -21 10 -10 11 2 11 13 3 2 9 7 8 6 9 5 10 6 10 7 4 7 3 2 19 11 18 9 13 11 4 6 7 7 6 9 5 7 7 10 10
22 31 36 42 45 -34 -9 24 22 -6 8 18 31 -13 34 -10 21 16 9 4 1 9 8 7 -7 -1 3 5 7 -4 7 7 5 6 1 2 9 16 7 18 11 11 10 11 9 9 6 10 3 6 8 9 10 11
30 44 18 -1 -38 14 39 7 -8 28 -29 31 14 9 0 22 17 10 3 7 4 17 9 -10 18 4 10 3 2 6 5 4 8 7 3 4 3 14 8 17 6 11 11 10 9 8 9 5 5 8 9 9 11 15
2 7 16 -35 4 15 19 27 28 -23 4 8 6 -6 -7 1 15 -6 15 14 9 17 -6 13 12 10 -1 -1 8 8 3 0 3 6 6 9 11 10 16 23 21 12 9 8 6 6 6 4 7 8 8 11 15 10
39 19 26 5 10 23 29 -5 -2 26 -17 7 27 22 18 -13 13 16 30 -13 -22 7 6 17 8 0 -3 7 3 -1 2 8 7 2 9 9 7 14 20 23 20 12 7 7 4 5 3 6 6 8 11 12 12 11
20 7 26 9 15 -4 -1 22 41 27 35 -3 -30 17 2 3 17 25 27 24 18 17 12 5 9 21 20 8 7 5 5 1 5 12 11 13 9 6 24 20 15 6 7 7 6 4 5 7 6 10 11 14 12 11
5 13 7 9 -2 3 3 18 31 16 26 29 -27 22 20 24 11 10 -9 6 11 20 19 12 6 9 5 5 2 0 5 11 11 9 8 9 8 12 13 28 8 7 6 4 5 4 7 6 10 9 13 14 12 11
22 18 15 11 4 1 25 10 -0 20 17 24 10 -0 -3 12 -3 18 12 4 1 12 8 6 8 9 5 2 6 7 10 7 6 11 5 6 12 17 21 21 11 6 6 3 7 7 7 10 10 10 12 12 11 9
11 16 23 14 12 -16 -17 -7 14 16 -4 -16 13 0 3 3 2 0 2 9 10 8 11 8 2 0 5 5 6 8 9 5 7 14 3 -3 -2 20 35 22 12 11 9 4 4 8 12 11 8 11 9 8 10 10
14 14 0 5 -7 18 11 17 17 8 16 21 7 -13 -1 20 -8 -10 -5 -3 6 -1 -7 2 5 4 6 6 10 2 4 7 7 11 9 5 8 7 25 23 10 9 9 7 8 13 14 11 8 11 9 7 7 3
11 7 -4 -2 16 -11 -3 16 18 14 20 14 16 3 14 5 17 12 1 3 -18 4 12 12 6 7 4 8 8 8 6 6 6 11 8 6 5 4 12 29 15 6 6 8 8 14 13 8 7 12 11 7 5 4
12 13 10 -3 -2 11 -5 -1 12 11 11 14 15 17 17 15 12 13 18 18 13 15 14 7 9 9 14 11 7 7 10 9 4 -1 -5 -6 6 10 7 17 26 16 5 5 11 11 11 9 8 12 13 9 6 4
-4 1 11 15 3 -0 12 -6 -0 13 10 10 9 9 6 7 7 9 6 12 11 6 10 8 12 8 6 6 4 -1 4 9 11 11 11 13 10 12 15 18 18 17 16 15 11 11 9 10 8 12 13 11 6 6
15 17 22 14 9 16 6 2 4 7 10 9 7 11 9 8 7 10 8 4 5 9 2 7 7 8 8 4 -1 4 6 4 4 4 7 12 6 8 13 16 17 12 11 12 12 11 11 10 8 10 13 11 9 5
-13 10 13 12 8 -0 10 10 13 11 13 11 11 7 7 5 7 7 6 6 3 4 6 11 9 6 10 5 -5 7 8 2 3 7 5 9 10 8 13 19 15 9 13 15 13 12 12 12 9 9 11 12 9 6
18 4 0 6 5 -2 1 1 8 9 10 12 11 13 10 9 9 9 10 5 5 10 9 9 12 7 6 4 6 9 9 4 2 5 7 5 11 12 13 15 15 11 10 12 12 12 13 12 12 11 11 13 10 7
-4 -0 4 12 8 6 4 9 5 9 8 10 10 11 9 9 13 8 9 10 5 5 14 12 14 10 3 8 13 7 8 5 5 3 7 7 4 -1 0 9 14 18 14 7 10 10 12 14 13 12 11 11 9 7
2 5 3 4 1 5 5 7 12 15 18 13 6 5 4 9 12 14 9 8 1 1 3 10 12 8 2 2 6 1 11 14 8 4 2 6 8 5 3 1 7 16 13 11 9 8 10 10 11 11 10 10 11 10
10 4 -2 -2 5 4 0 -3 -2 0 4 6 13 13 14 12 12 12 6 10 13 16 13 9 9 11 12 11 7 12 14 11 15 10 6 2 8 10 5 1 8 12 13 13 9 8 8 10 11 10 9 8 9 9
6 4 1 1 -5 3 8 5 3 -2 -2 4 6 4 5 4 8 8 6 8 8 10 12 13 14 12 10 12 12 11 11 6 8 9 12 10 11 14 10 3 4 10 8 11 11 10 8 8 9 9 9 9 9 9
2 6 5 5 4 3 6 2 1 5 9 10 12 10 7 7 7 4 6 5 6 5 7 8 10 9 12 13 8 7 10 9 6 10 13 11 9 12 6 2 2 6 9 16 16 13 11 9 9 8 8 9 9 10
17 13 11 7 6 4 6 10 11 6 11 12 9 8 7 7 6 6 10 12 8 6 3 5 13 12 11 11 12 11 4 6 10 12 14 9 16 15 9 5 7 8 9 18 17 14 12 10 9 9 11 12 10 10
24 30 24 16 14 10 8 4 3 4 3 8 9 7 7 9 10 7 7 7 8 4 -2 10 12 8 3 11 15 8 2 5 17 11 9 11 16 17 8 7 12 14 13 13 14 14 11 8 7 11 15 10 8 6
11 14 18 25 24 22 16 14 13 12 6 3 4 6 3 -2 1 5 8 10 13 11 6 3 8 7 5 8 13 14 3 3 7 13 6 11 13 12 10 10 12 12 13 14 14 12 12 11 9 8 9 9 9 8
13 12 11 12 16 18 18 17 19 20 14 14 11 4 0 6 11 8 4 3 -0 -3 -2 -5 -3 1 2 -1 1 2 0 4 10 18 10 7 13 14 11 9 12 13 12 11 11 10 9 10 10 9 8 8 8 9
Height
5212 5229 5247 5276 5303 5326 5344 5361 5378 5395 5420 5444 5468 5488 5513 5531 5550 5570 5588 5603 5617 5632 5646 5660 5671 5677 5689 5700 5711 5717 5719 5725 5731 5735 5738 5741 5743 5744 5745 5747 5748 5749 5750 5751 5752 5753 5753 5752 5751 5749 5748 5744 5740 5736
5218 5230 5248 5276 5300 5320 5339 5355 5372 5395 5419 5444 5469 5493 5514 5532 5550 5570 5585 5601 5615 5628 5646 5658 5664 5676 5688 5699 5709 5711 5715 5719 5726 5731 5734 5736 5738 5739 5740 5741 5742 5744 5746 5747 5749 5750 5749 5748 5747 5745 5743 5740 5737 5733
5228 5241 5260 5280 5300 5319 5334 5351 5365 5391 5419 5443 5471 5493 5512 5529 5548 5567 5582 5593 5606 5625 5638 5648 5656 5666 5674 5686 5697 5701 5708 5715 5722 5726 5729 5732 5734 5735 5736 5736 5737 5739 5741 5743 5744 5745 5745 5744 5743 5741 5739 5736 5733 5730
5243 5255 5270 5286 5303 5318 5332 5347 5363 5393 5421 5449 5471 5494 5514 5532 5550 5565 5581 5598 5613 5623 5636 5646 5653 5665 5677 5690 5693 5698 5706 5712 5717 5722 5725 5728 5729 5730 5731 5731 5733 5735 5736 5738 5740 5740 5740 5740 5738 5737 5735 5732 5729 5726
5259 5268 5279 5292 5304 5319 5332 5344 5372 5402 5431 5455 5480 5497 5518 5533 5550 5565 5582 5598 5613 5628 5636 5646 5653 5663 5675 5682 5689 5699 5704 5708 5713 5718 5720 5722 5723 5725 5725 5726 5729 5730 5732 5734 5735 5736 5736 5735 5734 5733 5731 5728 5725 5722
5270 5277 5286 5295 5306 5318 5332 5358 5387 5414 5441 5463 5483 5503 5517 5537 5553 5567 5581 5594 5608 5624 5632 5641 5651 5663 5670 5679 5689 5694 5699 5703 5709 5713 5715 5716 5720 5720 5721 5721 5723 5724 5726 5729 5731 5731 5731 5731 5730 5728 5726 5723 5721 5718
5282 5287 5293 5301 5316 5327 5344 5377 5396 5422 5445 5469 5488 5508 5524 5541 5556 5569 5584 5599 5607 5620 5630 5640 5650 5659 5669 5677 5684 5689 5695 5699 5704 5707 5710 5712 5714 5714 5716 5717 5719 5719 5722 5724 5726 5726 5727 5726 5725 5723 5721 5718 5716 5712
5295 5304 5313 5321 5330 5348 5368 5396 5416 5436 5458 5477 5494 5509 5527 5541 5556 5570 5583 5596 5605 5617 5627 5635 5644 5657 5667 5673 5680 5686 5690 5695 5699 5702 5705 5707 5709 5709 5713 5714 5714 5715 5718 5720 5721 5721 5721 5721 5720 5718 5716 5713 5711 5708
5306 5314 5326 5336 5350 5362 5381 5401 5420 5440 5461 5480 5499 5515 5528 5540 5554 5564 5579 5591 5604 5619 5626 5634 5645 5655 5663 5670 5677 5681 5686 5690 5695 5698 5701 5702 5703 5706 5709 5707 5708 5712 5714 5714 5715 5715 5716 5715 5714 5713 5711 5709 5706 5702
5325 5332 5340 5349 5366 5383 5401 5418 5434 5451 5471 5487 5501 5514 5526 5542 5557 5572 5584 5593 5604 5612 5622 5633 5644 5654 5661 5669 5674 5679 5682 5686 5689 5693 5695 5697 5699 5702 5702 5700 5700 5705 5708 5709 5710 5711 5710 5710 5708 5707 5705 5702 5700 5697
5336 5347 5359 5375 5388 5402 5416 5430 5443 5457 5472 5483 5496 5514 5531 5548 5559 5570 5579 5589 5598 5608 5619 5630 5642 5651 5656 5664 5669 5673 5676 5680 5684 5689 5689 5692 5696 5692 5689 5691 5693 5697 5702 5703 5703 5704 5704 5703 5703 5701 5699 5696 5693 5691
5351 5363 5373 5386 5398 5411 5425 5439 5452 5464 5477 5493 5508 5525 5535 5546 5556 5565 5572 5583 5593 5605 5616 5628 5637 5645 5650 5657 5663 5668 5671 5675 5678 5684 5685 5688 5687 5682 5683 5684 5686 5690 5695 5696 5697 5697 5698 5697 5696 5694 5692 5690 5687 5685
5371 5380 5390 5400 5414 5423 5433 5446 5460 5474 5487 5500 5514 5526 5534 5542 5547 5552 5563 5579 5593 5604 5614 5623 5630 5638 5647 5655 5660 5663 5667 5670 5674 5676 5680 5681 5679 5677 5677 5679 5681 5685 5688 5689 5690 5691 5691 5690 5689 5687 5686 5684 5681 5679
5381 5391 5400 5411 5421 5431 5444 5455 5465 5476 5490 5503 5514 5521 5528 5533 5547 5565 5579 5589 5598 5607 5615 5622 5632 5638 5645 5650 5654 5658 5662 5665 5668 5673 5673 5671 5671 5671 5673 5674 5676 5680 5682 5683 5684 5684 5684 5683 5682 5681 5679 5677 5676 5673
5391 5401 5409 5419 5429 5439 5450 5461 5471 5482 5491 5501 5510 5519 5530 5545 5558 5568 5578 5586 5596 5605 5612 5619 5627 5635 5639 5642 5648 5652 5656 5661 5665 5664 5662 5664 5663 5664 5666 5668 5670 5673 5675 5677 5677 5677 5677 5676 5675 5674 5672 5671 5669 5667
5401 5409 5420 5429 5437 5446 5456 5467 5478 5490 5499 5508 5519 5530 5538 5550 5561 5568 5576 5584 5593 5601 5608 5615 5621 5627 5632 5638 5643 5647 5652 5656 5654 5656 5657 5658 5657 5657 5659 5660 5663 5665 5668 5669 5670 5670 5669 5668 5668 5667 5665 5664 5662 5661
5412 5419 5426 5437 5446 5454 5463 5472 5484 5492 5502 5510 5520 5530 5540 5550 5558 5567 5576 5584 5593 5600 5606 5612 5617 5623 5629 5633 5639 5643 5647 5645 5649 5650 5651 5651 5652 5653 5654 5655 5657 5659 5660 5661 5662 5663 5662 5661 5660 5659 5658 5657 5655 5654
5421 5428 5436 5444 5454 5463 5470 5477 5485 5493 5503 5514 5523 5532 5541 5549 5557 5565 5574 5581 5589 5596 5601 5607 5614 5619 5624 5628 5633 5636 5637 5641 5643 5644 5645 5646 5646 5647 5649 5650 5650 5651 5652 5654 5655 5655 5655 5654 5653 5652 5652 5649 5648 5646
5427 5435 5443 5451 5459 5467 5473 5480 5488 5496 5505 5513 5521 5530 5537 5545 5553 5562 5570 5577 5583 5590 5595 5602 5608 5613 5618 5623 5625 5628 5631 5634 5637 5638 5639 5640 5641 5641 5641 5642 5643 5643 5645 5646 5647 5647 5647 5647 5646 5645 5645 5644 5642 5640
5434 5439 5446 5453 5461 5467 5475 5482 5490 5497 5503 5512 5520 5527 5535 5542 5550 5556 5563 5570 5578 5585 5590 5598 5603 5608 5612 5615 5618 5621 5624 5627 5629 5631 5633 5634 5634 5634 5634 5634 5635 5635 5636 5637 5638 5638 5639 5640 5639 5638 5637 5636 5635 5633
5438 5445 5449 5454 5462 5469 5476 5484 5490 5496 5503 5510 5518 5525 5532 5538 5545 5552 5559 5565 5573 5581 5587 5592 5596 5601 5605 5608 5611 5614 5617 5620 5621 5623 5625 5625 5626 5626 5626 5626 5626 5627 5628 5629 5629 5629 5630 5630 5631 5629 5628 5628 5627 5626
5438 5446 5454 5458 5462 5467 5475 5481 5487 5495 5502 5508 5514 5519 5526 5533 5540 5546 5553 5560 5567 5575 5580 5584 5587 5592 5596 5600 5602 5606 5609 5612 5614 5615 5617 5617 5618 5618 5618 5618 5618 5619 5619 5620 5620 5620 5620 5621 5621 5620 5619 5619 5618 5617
5438 5444 5449 5454 5459 5465 5472 5476 5482 5489 5496 5502 5509 5514 5520 5527 5533 5539 5545 5553 5561 5567 5571 5575 5579 5584 5588 5591 5594 5598 5602 5604 5605 5607 5609 5609 5610 5610 5610 5609 5609 5610 5611 5610 5611 5611 5611 5611 5610 5609 5609 5609 5608 5606
5433 5439 5444 5449 5454 5460 5466 5472 5478 5485 5490 5497 5503 5509 5515 5522 5527 5532 5539 5548 5555 5559 5563 5567 5571 5575 5578 5581 5585 5589 5592 5594 5597 5599 5600 5600 5601 5601 5601 5601 5601 5601 5601 5601 5602 5602 5600 5599 5600 5601 5599 5598 5597 5595
5428 5431 5437 5441 5449 5456 5462 5467 5473 5480 5486 5491 5497 5502 5508 5515 5520 5526 5533 5540 5546 5551 5554 5557 5561 5565 5569 5573 5576 5580 5582 5585 5587 5589 5590 5591 5592 5593 5593 5592 5592 5591 5591 5592 5591 5590 5591 5591 5591 5590 5588 5587 5585 5583
5419 5423 5431 5436 5443 5450 5456 5462 5467 5472 5478 5484 5488 5494 5501 5506 5511 5517 5523 5529 5536 5540 5542 5546 5550 5553 5558 5562 5566 5569 5571 5572 5574 5577 5579 5581 5581 5582 5582 5583 5583 5582 5581 5581 5581 5579 5580 5580 5580 5578 5577 5575 5573 5572
5413 5421 5428 5433 5438 5443 5448 5452 5458 5464 5469 5474 5480 5486 5491 5496 5501 5508 5514 5518 5523 5528 5531 5535 5539 5543 5547 5550 5554 5557 5559 5562 5563 5565 5567 5568 5569 5571 5571 5571 5572 5571 5570 5570 5568 5568 5569 5569 5567 5566 5565 5563 5562 5560
5408 5414 5420 5425 5429 5435 5440 5445 5449 5455 5461 5466 5472 5475 5480 5486 5492 5497 5501 5505 5510 5516 5520 5524 5528 5531 5535 5538 5542 5544 5547 5549 5550 5551 5553 5555 5557 5557 5557 5558 5559 5558 5558 5557 5556 5556 5555 5555 5555 5554 5552 5551 5550 5548
5396 5402 5407 5412 5417 5422 5428 5433 5438 5444 5449 5453 5458 5463 5469 5474 5479 5482 5486 5491 5496 5502 5508 5513 5516 5519 5523 5525 5528 5530 5533 5535 5537 5539 5540 5541 5542 5544 5543 5544 5545 5545 5545 5543 5542 5541 5540 5540 5541 5540 5539 5538 5537 5535
5380 5385 5391 5396 5401 5408 5415 5419 5424 5427 5432 5435 5440 5446 5452 5458 5463 5468 5472 5477 5483 5488 5494 5500 5504 5507 5510 5512 5513 5516 5518 5520 5522 5525 5526 5527 5527 5527 5528 5529 5530 5530 5529 5527 5527 5526 5526 5526 5526 5526 5525 5524 5523 5521
5361 5366 5372 5378 5386 5393 5398 5400 5403 5406 5412 5419 5425 5431 5437 5442 5449 5455 5459 5464 5469 5474 5479 5484 5488 5493 5496 5497 5498 5501 5504 5506 5508 5509 5511 5512 5513 5514 5514 5514 5514 5514 5513 5512 5511 5512 5512 5512 5512 5511 5510 5509 5507 5506
5348 5352 5356 5362 5369 5374 5375 5379 5384 5390 5396 5402 5408 5414 5421 5426 5432 5440 5446 5449 5454 5459 5462 5466 5471 5474 5476 5480 5483 5487 5489 5492 5493 5494 5495 5496 5496 5497 5499 5498 5498 5498 5498 5497 5497 5497 5497 5497 5496 5495 5494 5493 5492 5490
5335 5339 5343 5345 5347 5353 5360 5363 5366 5371 5377 5384 5392 5399 5403 5409 5416 5424 5429 5433 5438 5442 5445 5449 5452 5455 5458 5462 5466 5470 5473 5475 5477 5478 5479 5480 5480 5481 5482 5483 5483 5483 5483 5483 5483 5483 5482 5482 5481 5479 5478 5477 5476 5474